Probability
0 1 1 1 0 0 0 0 1 2 1 1 1 1 1 2 3 3 2 2 2 2 3 3 3 3 3 3 3 3 3 4 4 2 1 0 1 2 2 2 1 0 0
0 0 0 0 0 0 0 0 1 2 2 1 1 0 1 2 3 3 2 1 1 1 3 3 3 3 4 4 3 3 3 4 4 3 1 1 0 1 1 1 0 0 0
0 0 0 0 0 0 0 0 1 3 3 2 1 0 1 1 2 2 2 1 0 1 2 3 3 4 4 4 4 3 3 4 4 3 2 1 0 0 0 0 0 0 0
0 0 0 0 0 1 1 2 2 3 3 3 2 1 0 0 0 1 2 1 1 1 3 3 3 3 4 4 4 4 3 3 3 2 1 0 0 0 0 0 0 0 0
0 0 0 1 1 3 4 4 3 3 3 2 2 1 0 0 0 1 2 2 2 3 3 3 3 3 4 5 5 5 4 3 3 2 0 0 0 0 0 0 0 0 0
0 0 1 2 3 4 4 4 3 3 3 2 1 0 0 0 1 2 3 3 3 3 3 3 4 3 3 4 5 4 3 3 2 1 0 0 0 0 1 0 0 1 1
0 0 1 2 3 3 2 2 3 4 3 2 1 0 0 0 1 2 3 3 3 3 3 4 5 4 4 4 4 3 2 2 1 0 0 0 0 0 1 1 1 2 2
0 0 0 1 1 2 2 2 3 3 4 3 2 1 1 1 1 2 3 2 2 2 3 5 5 5 4 3 3 3 2 2 1 0 0 0 0 0 1 2 3 3 3
0 0 0 0 0 1 2 2 2 2 3 4 4 4 4 4 3 3 3 2 2 2 2 3 4 4 3 3 3 4 3 1 0 0 0 0 0 0 1 3 3 3 2
1 0 0 0 0 0 1 1 2 3 3 5 6 6 6 5 4 3 3 3 4 4 2 2 3 3 3 2 3 5 4 1 0 0 0 0 0 0 2 3 3 2 2
4 2 0 0 0 0 0 1 2 2 3 4 5 5 4 3 3 2 3 3 4 4 3 3 3 3 2 1 2 3 3 1 0 0 1 1 1 1 2 3 3 2 1
6 4 1 1 0 0 0 0 1 1 1 1 2 2 1 1 1 1 1 2 3 3 3 2 2 1 1 0 0 1 2 1 0 0 1 1 2 3 3 4 3 2 2
6 5 3 2 1 0 0 1 1 1 1 1 0 0 0 0 0 0 0 1 1 2 1 1 1 0 0 0 0 0 1 1 0 0 1 2 3 4 4 4 3 3 4
4 3 3 3 3 2 1 2 2 2 2 1 0 0 0 0 0 1 1 0 0 0 0 0 0 0 0 0 0 0 0 0 0 0 1 2 3 3 4 3 3 3 3
3 2 3 4 5 5 4 3 2 1 1 1 0 1 1 1 2 2 1 0 0 0 0 0 0 0 0 0 0 0 0 0 0 0 0 1 1 2 2 2 1 1 1
5 4 4 5 7 7 5 3 2 1 1 1 1 2 3 4 4 3 2 1 0 0 0 0 0 0 0 0 0 0 0 0 0 0 0 0 0 1 1 1 0 0 0
8 8 7 7 7 7 5 3 2 2 3 3 3 4 4 4 3 2 2 1 0 0 0 0 0 0 0 0 0 0 0 0 0 0 0 0 0 0 0 1 1 0 0
10 10 9 9 8 7 6 4 4 4 5 5 5 4 4 3 2 1 1 1 0 0 0 0 0 0 0 0 0 0 0 0 0 0 0 0 0 0 0 1 1 0 0
12 12 11 11 10 8 6 5 5 6 5 5 5 4 4 3 1 0 0 0 0 0 0 0 0 0 0 0 0 0 0 0 0 0 0 0 0 0 0 1 1 0 0
15 16 15 13 12 9 7 6 6 6 5 5 5 5 5 3 1 0 0 0 0 0 0 0 0 0 0 0 0 0 0 0 0 0 0 0 0 0 0 0 0 0 0
19 19 18 15 13 11 9 8 8 7 6 5 6 6 6 3 1 0 0 0 0 0 1 1 1 1 1 1 1 1 0 0 0 0 0 0 0 0 0 0 0 0 0
21 21 19 17 16 13 11 10 9 8 7 6 7 7 7 5 3 1 0 0 0 1 2 2 2 2 2 2 2 2 1 1 1 0 0 0 0 0 0 0 0 0 0
21 22 19 17 17 15 12 11 10 9 8 8 8 9 9 8 6 4 2 0 0 1 3 3 3 3 3 3 3 3 3 2 2 1 1 1 0 0 0 0 1 1 1
23 22 18 16 15 14 11 11 10 9 8 8 7 8 10 9 8 7 5 2 1 2 3 3 3 3 3 3 3 3 3 3 3 3 2 2 1 1 1 1 2 3 3
23 22 19 16 14 12 10 9 8 8 7 6 5 5 7 7 6 6 5 4 3 3 3 3 3 3 3 3 3 3 3 3 3 3 3 3 3 2 2 2 4 5 5
22 22 20 18 15 12 10 8 7 6 7 6 4 3 4 4 3 4 4 4 4 3 3 3 3 3 3 3 3 3 3 3 3 3 3 3 3 3 3 3 4 6 6
Wind_Speed
3 3 6 7 8 8 9 9 9 9 10 10 10 10 9 9 9 9 8 8 9 9 9 9 9 9 9 9 10 10 11 11 11 11 11 11 10 10 10 9 8 6 10
6 4 6 8 8 9 9 9 9 9 10 10 10 9 9 9 9 8 8 8 8 9 9 9 9 9 9 9 9 9 10 10 11 11 11 10 10 10 10 9 8 5 10
7 5 6 8 9 9 9 9 9 9 9 9 10 9 9 8 8 8 8 7 8 8 9 8 8 8 8 8 9 9 9 9 10 11 10 5 6 9 10 10 9 9 9
7 5 6 9 9 9 9 9 9 9 8 9 9 9 8 8 8 8 7 7 7 7 8 8 7 7 7 8 8 8 8 8 9 10 5 4 5 9 10 10 9 9 9
6 4 6 10 10 9 9 9 9 8 8 10 10 9 9 8 8 8 7 6 7 7 7 7 6 6 6 7 8 8 8 8 9 7 4 4 4 9 10 10 10 10 10
6 5 6 10 10 9 9 9 9 9 9 10 10 9 8 8 8 7 6 6 6 6 6 5 5 5 4 5 7 7 8 8 7 4 4 5 5 9 11 11 11 11 10
6 4 6 10 10 9 9 9 9 9 9 9 9 8 8 7 7 6 6 6 5 5 5 4 4 4 5 5 6 6 7 8 4 4 5 5 6 11 12 12 11 11 11
8 6 5 9 9 9 8 8 8 8 8 8 8 7 7 7 7 6 5 5 5 5 4 4 4 4 5 5 5 5 6 6 5 4 4 4 8 11 12 12 11 12 12
6 5 3 4 5 7 7 7 8 8 7 7 7 7 6 6 6 5 5 4 4 4 3 4 4 4 4 5 5 5 5 6 3 3 5 4 8 11 12 12 12 12 12
6 4 3 3 2 2 3 5 6 7 7 6 6 5 5 4 4 4 3 4 4 3 3 3 4 4 4 4 5 5 5 5 3 4 3 5 10 12 13 13 13 13 12
5 4 3 3 2 2 2 4 4 5 5 5 4 4 3 1 1 1 2 3 3 3 3 3 4 4 4 4 4 5 4 2 3 3 3 6 10 11 13 13 13 12 12
5 4 3 4 3 2 2 2 1 2 2 2 1 1 1 1 1 1 2 2 2 2 3 3 3 3 2 1 2 3 2 3 3 3 4 9 10 11 11 12 12 12 12
5 4 3 3 3 3 2 2 1 1 1 1 1 1 1 1 0 0 0 1 1 1 1 1 2 1 1 1 1 2 2 2 2 3 4 10 10 11 12 11 11 12 12
5 5 3 3 3 2 2 2 2 1 1 1 1 1 1 1 0 0 0 0 0 0 1 1 1 1 1 1 2 2 3 3 2 2 4 10 10 11 12 12 11 11 12
5 4 4 3 3 3 2 1 2 1 1 1 1 1 2 1 1 1 0 0 0 0 0 0 1 1 1 1 2 3 3 3 4 3 3 9 10 11 12 12 12 11 12
5 4 4 3 3 3 3 2 2 2 1 1 1 1 2 1 1 1 0 0 0 1 0 0 1 1 0 0 1 2 3 3 3 4 3 5 9 11 12 12 13 12 12
6 4 4 4 3 3 3 2 2 2 2 1 0 1 1 2 1 1 1 0 0 1 1 1 1 1 1 0 1 1 2 3 3 4 3 3 4 8 11 11 12 13 12
6 5 4 4 3 3 2 2 2 2 2 1 0 1 1 1 1 1 1 0 0 0 1 1 1 1 1 1 1 1 1 2 3 4 3 3 3 3 6 10 11 12 12
7 5 4 4 3 2 3 2 2 2 1 1 1 1 1 1 1 1 1 0 0 1 1 1 1 1 1 1 1 1 0 1 2 3 3 3 3 3 3 6 9 10 12
6 6 5 4 3 3 3 2 2 1 1 1 1 1 1 1 1 1 1 1 1 1 1 1 1 1 1 0 1 1 1 0 1 1 2 2 2 3 3 3 4 6 10
6 6 5 4 3 2 2 1 1 1 0 1 1 1 1 1 1 2 2 1 1 1 1 1 1 1 2 1 1 2 2 1 0 1 1 1 2 3 3 4 3 2 4
6 6 5 4 3 2 2 2 2 1 1 0 0 1 1 1 1 2 2 1 1 1 2 2 2 1 1 1 1 1 2 3 2 1 1 1 2 2 3 4 3 4 3
6 6 5 4 3 2 2 2 2 2 2 2 1 1 1 1 1 1 1 1 1 1 1 1 1 1 0 1 1 2 1 2 2 2 1 1 1 1 2 2 4 4 5
7 6 5 5 4 3 2 2 2 2 1 1 1 0 1 1 1 1 1 1 1 1 1 1 1 0 1 1 1 0 1 2 1 2 2 1 1 2 2 2 3 4 4
7 6 5 5 4 3 3 3 3 2 1 0 0 1 1 1 1 1 1 2 1 1 1 1 1 1 1 1 0 1 1 1 1 1 2 3 2 2 2 2 2 3 3
6 5 5 4 3 3 3 3 3 3 2 1 0 0 0 1 1 1 1 1 1 1 1 1 1 1 1 1 1 1 1 0 1 1 1 2 2 3 2 1 1 2 2
Wind_Direction
175 179 148 128 119 116 112 113 115 118 119 120 121 122 124 126 129 131 133 140 147 154 155 155 158 158 158 159 161 161 160 157 155 155 154 153 155 156 158 158 152 150 145
160 159 139 125 119 118 118 118 119 119 122 124 123 122 125 127 129 132 134 140 147 154 157 159 161 161 163 164 163 162 163 162 160 160 159 158 161 163 163 163 158 153 150
142 146 135 126 121 120 120 118 118 118 121 126 126 125 123 123 126 129 132 137 146 151 154 155 162 164 165 166 167 167 167 168 168 168 164 162 165 165 165 164 160 156 157
141 143 135 128 122 120 120 117 115 117 122 131 131 127 123 122 122 120 123 129 137 142 146 148 153 162 170 175 176 175 173 174 175 175 170 167 170 172 171 166 164 163 164
134 136 139 130 125 125 123 119 116 113 111 124 125 125 123 122 124 122 122 123 129 136 141 148 154 164 175 185 185 182 180 183 185 182 169 168 171 179 176 172 170 169 168
138 141 144 134 127 124 126 122 121 119 116 117 121 124 125 124 124 126 128 131 133 135 138 146 158 168 178 184 184 187 189 192 190 168 164 173 179 185 183 180 179 175 171
141 141 145 139 134 129 127 126 122 120 118 119 121 125 130 134 137 139 140 139 140 141 144 154 168 176 180 179 183 188 194 195 175 166 168 179 189 187 188 185 183 178 176
143 145 144 146 141 138 136 135 132 130 127 126 127 128 134 143 146 147 148 146 150 150 149 162 175 187 190 192 199 202 199 190 175 174 174 185 190 190 190 186 185 183 180
136 140 145 150 149 147 145 142 139 136 136 136 135 135 136 140 149 155 158 154 157 160 165 177 185 198 202 205 208 208 203 197 171 167 184 192 196 191 189 187 188 187 185
130 141 147 149 143 146 151 153 147 145 145 142 140 142 144 143 143 146 158 169 174 180 188 197 200 210 211 211 211 205 195 190 171 177 180 195 199 198 196 193 193 192 190
122 132 144 146 147 165 173 161 152 148 149 147 145 150 143 116 131 158 170 174 181 190 204 209 213 218 219 220 223 215 200 176 173 179 181 200 200 199 197 196 195 195 194
131 142 149 144 154 150 152 131 129 127 120 118 108 129 135 136 192 193 194 197 214 227 232 225 232 241 249 233 235 228 188 175 184 188 193 197 202 199 196 195 197 197 194
146 142 141 136 141 147 141 131 126 115 108 110 129 132 127 122 189 210 141 278 284 284 289 274 269 265 224 204 212 197 189 184 189 197 198 199 202 200 199 198 198 196 194
136 145 146 139 129 136 132 142 137 133 131 145 165 153 139 133 117 110 150 234 282 293 273 258 255 244 227 221 207 187 186 195 193 192 200 201 201 202 201 201 201 199 197
131 137 145 134 130 128 113 128 124 133 148 154 133 152 150 142 134 105 77 60 289 281 260 273 263 249 236 228 198 180 195 201 192 187 197 201 203 203 202 204 203 204 202
132 136 136 128 127 118 113 112 108 113 121 106 110 132 134 135 126 119 99 70 330 304 295 259 274 283 279 239 203 193 196 198 195 186 194 206 207 207 208 210 206 205 202
141 138 134 129 113 111 109 111 108 113 103 96 97 100 104 107 111 116 112 98 313 315 328 3 352 9 21 1 241 215 196 194 188 183 189 199 211 212 212 214 212 209 207
137 140 140 132 122 120 117 112 109 102 101 106 98 85 87 92 100 100 92 33 300 50 49 45 21 17 10 2 298 258 200 181 182 185 187 193 205 216 218 217 217 214 210
145 144 139 129 130 130 116 108 103 93 87 97 107 98 95 95 98 105 86 343 35 64 58 36 43 50 24 347 300 306 287 173 183 189 180 188 201 215 219 223 221 217 214
150 145 139 130 131 128 108 92 80 71 47 49 88 90 95 83 90 91 69 28 42 62 47 39 37 21 36 310 338 9 6 133 163 184 196 194 201 214 213 218 222 224 221
151 146 146 136 137 128 123 135 141 157 293 5 35 70 88 91 95 89 65 47 46 64 51 40 51 28 13 23 48 7 353 344 349 197 206 197 210 216 205 205 209 217 223
158 158 153 149 150 151 157 165 161 153 172 181 35 62 86 78 67 85 77 60 52 61 40 39 56 56 8 41 90 61 355 343 334 275 208 204 222 218 215 210 208 214 221
165 165 158 155 148 146 118 85 70 55 39 30 26 25 27 80 76 73 83 95 67 88 68 36 47 85 36 345 72 123 137 252 303 317 273 239 236 223 230 216 211 218 219
166 159 152 150 144 137 122 115 121 125 148 224 225 142 21 38 55 57 63 82 77 70 63 15 59 62 106 346 321 327 173 171 162 306 322 301 257 245 236 227 215 212 213
156 157 154 147 149 151 150 150 142 140 168 190 63 61 26 9 22 45 61 66 61 56 56 33 34 31 87 139 276 297 323 11 106 154 289 314 316 275 245 231 216 217 214
152 151 150 146 150 154 155 157 156 157 154 135 132 136 318 327 355 10 61 65 69 55 40 21 38 48 48 70 63 76 122 133 241 176 226 284 293 287 269 241 228 232 224